Regional Weather Roundup
Issued by NWS Northern Indiana

Home | Current Version | Previous Version | Text Only | Print | Product List | Glossary On
Versions: 1 2 3 4 5 6 7 8 9 10 11 12 13 14 15 16 17 18 19 20 21 22 23 24 25 26 27 28 29 30 31 32 33 34 35 36 37 38 39 40 41 42 43 44 45 46 47 48 49 50
000
ASUS43 KIWX 240710
RWRIWX

KIWX WEATHER ROUNDUP
NATIONAL WEATHER SERVICE NORTHERN INDIANA
300 AM EDT MON JUL 24 2017

NOTE: "FAIR" INDICATES FEW OR NO CLOUDS BELOW 12,000 FEET WITH NO
SIGNIFICANT WEATHER AND/OR OBSTRUCTIONS TO VISIBILITY.

* THESE STATIONS ARE NOT UNDER NWS QUALITY CONTROL. THEY ALSO MAY NOT
  REPORT WEATHER SUCH AS PRECIPITATION OR FOG.

INZ001>027-240800-
NORTHERN INDIANA

CITY           SKY/WX    TMP DP  RH WIND       PRES   REMARKS
GARY*          CLOUDY    72  65  79 N12       29.91S
VALPARAISO     CLEAR     70  66  87 N9        29.89S
MICHIGAN CITY* MOCLDY    68  66  94 N12       29.90S
LAPORTE*       PTCLDY    68  65  90 N13       29.89F
KNOX*          CLOUDY    68  66  94 N9        29.87S
SOUTH BEND     PTCLDY    68  66  93 N10       29.88R
GOSHEN         MOCLDY    69  65  86 NW8       29.86R
MONTICELLO*    CLEAR     66  65  95 NW3       29.86F
LOGANSPORT*    CLEAR     64  63  94 N5        29.86F
ROCHESTER*     PTCLDY    68  68 100 NW3       29.86F
WARSAW*        MOCLDY    68  64  88 NW5       29.86R
AUBURN*        PTCLDY    70  63  78 CALM      29.84R
FORT WAYNE     PTCLDY    68  64  87 NW5       29.84R
HUNTINGTON*    CLEAR     66  64  96 CALM      29.84S
PERU/GRISSOM   PTCLDY    67  64  93 W6        29.84F

$$
INZ028>050-240800-
CENTRAL INDIANA

CITY           SKY/WX    TMP DP  RH WIND       PRES   REMARKS
LAFAYETTE      CLEAR     67  64  90 NW6       29.86S
KOKOMO*          N/A     66  64  93 MISG      29.86S
MUNCIE*        CLEAR     69  66  90 CALM      29.84S
INDIANAPOLIS   PTCLDY    71  68  90 W3        29.86R

$$
MIZ043>046-050>051-056>058-064>065-071>073-077>080-240800-
SOUTHWEST LOWER MICHIGAN

CITY           SKY/WX    TMP DP  RH WIND       PRES   REMARKS
BATTLE CREEK   CLEAR     66  63  90 NW6       29.86S
BENTON HARBOR  MOCLDY    68  62  81 VRB5      29.88R
COLDWATER*     CLEAR     67  67  99 N3        29.85S
HILLSDALE*     CLOUDY    66  63  88 NW6       29.84S
HOLLAND        CLEAR     65  61  87 VRB5      29.88S
KALAMAZOO      CLEAR     66  60  81 N8        29.87R
STURGIS*       CLEAR     66  64  94 CALM      29.85S
THREE RIVERS*  FAIR      66  64  93 NW5       29.86S

$$
OHZ001>008-015>018-024>025-240800-
NORTHWEST OHIO

CITY           SKY/WX    TMP DP  RH WIND       PRES   REMARKS
WAUSEON*       CLOUDY    70  68  94 NW5       29.82S
DEFIANCE       MOCLDY   N/A N/A N/A N5        29.82S
FINDLAY        MOCLDY    70  65  84 CALM      29.80F
TOLEDO EXPRESS CLOUDY    70  68  93 NW5       29.80S
TOLEDO METCALF CLOUDY    71  70  96 CALM      29.81S
LIMA           MOCLDY    69  67  93 SW6       29.83S

$$
AND FOR LAKE MICHIGAN COASTAL AND OPEN LAKE BUOY OBSERVATIONS

STATION/POSITION TEMP    WIND        PRES    VSBY  WAVE
                 AIR SEA DIR/SP/G                  HT/PER
                 (F)     (DEG/KT/KT) (MB)    (MI)  (FT/S)
CALUMET HARBOR    69     350/ 10/ 14 1012.4S
MICHIGAN CITY     70     360/ 16/ 17   N/A
BURNS HARBOR      71      10/ 14/ 20 1012.9R
SAINT JOSEPH      69     360/ 12/ 18 1012.9
SOUTH LAKE BUOY   67 70   10/ 19/ 21 1011.8          4/ 5
4 MI NW BRIDGMAN  70 75   30/ 16/ 19 1011.8          5/ 5
MICHIGAN CITY     70 75   10/ 14/ 19   N/A           4/ 4

$$
&&




USA.gov is the U.S. government's official web portal to all federal, state and local government web resources and services.